Location: Arleux
(50.3632°N, 2.8721°E)
Time: 01:58:15
(UTC+00:00)

Meteor 1-4 Rocket - Pass Details

Date: 15 December 2019
Orbit: 449 x 504 km, 81.2° (Epoch: 28 January)

Event Time Altitude Azimuth Distance (km) Brightness Sun altitude
Rises 06:53:08 0° 349° (NNW) 2,604 5.9 -7.4°
Reaches altitude 10° 06:55:17 10° 351° (N) 1,709 5.0 -7.1°
Maximum altitude 06:59:03 76° 77° (ENE) 513 2.8 -6.6°
Drops below altitude 10° 07:02:42 10° 164° (SSE) 1,665 6.0 -6.0°
Sets 07:04:46 0° 166° (SSE) 2,530 6.9 -5.8°
